WX2U Weather Reports


time (UTC)temp
C
wind
direction
speed
KPH
gust
KPH
rain 1hr
cm
rain 24hr
cm
rain mn
cm
humidity
%
barometer
mb
20260506191004 13 203 4.8 8.0 0.05 1.70 1.65 94 1005.4
20260506190004 14 250 6.4 8.0 0.08 1.70 1.65 93 1005.2
20260506185003 16 260 3.2 4.8 0.13 1.70 1.65 95 1005.3
20260506183003 16 265 0.0 0.0 0.20 1.70 1.65 95 1005.5
20260506182003 15 265 0.0 0.0 0.20 1.68 1.63 95 1005.6
20260506181003 15 265 0.0 0.0 0.23 1.65 1.60 96 1005.6
20260506180004 15 265 0.0 0.0 0.23 1.63 1.57 95 1005.7
20260506174003 14 265 0.0 1.6 0.23 1.52 1.47 95 1005.8
20260506173004 14 265 0.0 0.0 0.25 1.50 1.45 95 1005.8
20260506172003 14 265 0.0 3.2 0.28 1.47 1.42 95 1005.9
20260506171004 13 281 0.0 1.6 0.28 1.42 1.37 95 1005.9
20260506170003 13 281 0.0 3.2 0.30 1.40 1.35 95 1006.1
20260506165003 13 281 0.0 1.6 0.33 1.37 1.32 95 1006.2
20260506164004 13 281 0.0 0.0 0.30 1.30 1.24 95 1006.5
20260506161005 13 248 1.6 4.8 0.30 1.14 1.09 94 1006.6
20260506160004 13 194 0.0 4.8 0.30 1.09 1.04 94 1006.8
20260506155004 13 194 0.0 3.2 0.30 1.04 0.99 94 1006.9
20260506154003 13 194 0.0 4.8 0.33 0.99 0.94 94 1007.1
20260506153003 13 194 1.6 4.8 0.33 0.94 0.89 94 1007.2
20260506152003 13 194 0.0 3.2 0.33 0.89 0.84 94 1007.3
20260506150004 12 194 3.2 4.8 0.33 0.79 0.74 94 1007.4
20260506145004 12 193 0.0 3.2 0.28 0.74 0.69 94 1007.6
20260506144004 12 186 0.0 0.0 0.25 0.66 0.61 94 1007.7
20260506143004 12 186 0.0 4.8 0.25 0.61 0.56 94 1007.9
20260506142003 12 190 0.0 0.0 0.20 0.56 0.51 94 1008.2
20260506141003 12 190 0.0 3.2 0.20 0.53 0.48 94 1008.2
20260506140004 12 190 0.0 0.0 0.15 0.46 0.41 93 1008.1
20260506135003 12 190 0.0 0.0 0.20 0.46 0.41 93 1008.2
20260506133004 12 190 1.6 4.8 0.15 0.36 0.30 93 1007.8
20260506132003 12 279 1.6 3.2 0.20 0.36 0.30 93 1007.8
20260506130005 12 279 0.0 0.0 0.20 0.30 0.25 93 1007.7
20260506124004 12 279 0.0 0.0 0.13 0.23 0.18 93 1008.1
20260506122004 12 279 0.0 0.0 0.08 0.15 0.10 93 1008.3
20260506120003 12 56 0.0 0.0 0.03 0.10 0.05 92 1008.7
20260506115003 12 56 0.0 3.2 0.03 0.10 0.05 92 1008.5
20260506114003 12 56 1.6 3.2 0.03 0.10 0.05 92 1008.2
20260506113004 12 56 0.0 0.0 0.00 0.08 0.03 92 1008.0
20260506111003 12 56 0.0 0.0 0.03 0.08 0.03 91 1008.0
20260506110004 12 56 0.0 3.2 0.03 0.08 0.03 91 1008.1
20260506105003 12 56 1.6 4.8 0.03 0.08 0.03 91 1008.1
20260506104003 12 46 0.0 4.8 0.03 0.08 0.03 91 1008.0
20260506103004 12 54 1.6 11.3 0.03 0.08 0.03 90 1008.0
20260506102004 12 307 1.6 4.8 0.03 0.08 0.03 90 1007.8
20260506101004 12 30 0.0 4.8 0.00 0.05 0.00 90 1007.8
20260506100003 12 25 0.0 3.2 0.00 0.05 0.00 90 1007.9
20260506095004 12 46 0.0 0.0 0.00 0.05 0.00 89 1007.6
20260506094003 12 46 0.0 0.0 0.00 0.05 0.00 89 1007.5
20260506093004 12 46 0.0 0.0 0.00 0.05 0.00 88 1007.5
20260506091003 12 46 0.0 0.0 0.00 0.05 0.00 88 1007.5
20260506090004 12 46 0.0 0.0 0.00 0.05 0.00 87 1007.8
20260506085004 12 46 0.0 0.0 0.00 0.05 0.00 87 1007.5
20260506083003 12 46 0.0 0.0 0.00 0.05 0.00 86 1008.0
20260506082004 12 46 0.0 3.2 0.00 0.05 0.00 86 1008.1
20260506081003 12 46 0.0 0.0 0.00 0.05 0.00 85 1008.1
20260506073003 12 50 1.6 4.8 0.00 0.05 0.00 85 1008.6
20260506072003 12 59 1.6 4.8 0.00 0.05 0.00 85 1008.6
20260506071003 12 56 3.2 4.8 0.00 0.05 0.00 85 1008.5
20260506061003 13 57 3.2 8.0 0.00 0.05 0.00 86 1008.9
20260506051003 13 57 1.6 4.8 0.00 0.05 0.00 88 1009.0
20260506045003 14 42 0.0 0.0 0.00 0.05 0.00 86 1008.8
20260506042003 15 40 3.2 8.0 0.00 0.05 0.00 86 1009.0
20260506041003 15 52 3.2 4.8 0.00 0.05 0.00 85 1008.9
20260506040004 15 70 4.8 12.9 0.00 0.05 0.00 84 1009.1
20260506035004 16 59 3.2 11.3 0.00 0.00 0.00 83 1008.9
20260506033003 16 66 8.0 12.9 0.00 0.00 0.00 82 1009.0
20260506031003 17 74 6.4 11.3 0.00 0.00 0.00 83 1008.8
20260506025003 17 64 3.2 11.3 0.00 0.00 0.00 82 1008.4
20260506024003 16 62 3.2 8.0 0.00 0.00 0.00 84 1008.4
20260506023004 16 62 0.0 0.0 0.00 0.00 0.00 84 1008.4
20260506022004 16 62 0.0 0.0 0.00 0.00 0.00 84 1008.3
20260506021003 16 62 0.0 0.0 0.00 0.00 0.00 84 1008.2
20260506020003 17 62 0.0 0.0 0.00 0.00 0.00 83 1008.1
20260506014003 17 62 0.0 4.8 0.00 0.00 0.00 82 1007.7
20260506013003 17 62 0.0 0.0 0.00 0.00 0.00 82 1007.7
20260506012004 17 62 1.6 3.2 0.00 0.00 0.00 81 1007.4
20260506011005 17 62 1.6 3.2 0.00 0.00 0.00 79 1007.4
20260506010003 18 62 1.6 4.8 0.00 0.00 0.00 77 1007.2
20260506005004 18 64 1.6 4.8 0.00 0.00 0.00 77 1007.3
20260506004005 17 73 1.6 4.8 0.00 0.00 0.00 78 1007.5
20260506003005 17 270 3.2 4.8 0.00 0.00 0.00 79 1006.9
20260506002004 17 63 0.0 3.2 0.00 0.00 0.00 77 1006.9
20260506001003 17 63 1.6 3.2 0.00 0.00 0.00 77 1006.5
20260505234003 18 63 1.6 4.8 0.00 0.00 0.00 74 1006.6
20260505233004 18 47 3.2 11.3 0.00 0.00 0.00 74 1006.3
20260505232003 18 62 6.4 14.5 0.00 0.00 0.00 74 1006.2
20260505231004 18 36 8.0 19.3 0.00 0.00 0.00 74 1006.0
20260505230004 18 42 6.4 12.9 0.00 0.00 0.00 75 1005.8
20260505225003 18 70 6.4 19.3 0.00 0.00 0.00 76 1005.5
20260505224004 18 79 8.0 19.3 0.00 0.00 0.00 77 1005.6
20260505223003 18 63 12.9 22.5 0.00 0.00 0.00 75 1005.7
20260505222003 18 63 12.9 24.1 0.00 0.00 0.00 73 1005.9
20260505221004 18 71 14.5 27.4 0.00 0.00 0.00 72 1006.2
20260505220004 19 70 16.1 33.8 0.00 0.00 0.00 69 1006.2
20260505215003 20 72 19.3 33.8 0.00 0.00 0.00 67 1006.3
20260505214003 20 62 14.5 27.4 0.00 0.00 0.00 65 1006.1
20260505211003 21 101 8.0 29.0 0.00 0.00 0.00 63 1005.3
20260505210004 21 85 14.5 41.8 0.00 0.00 0.00 62 1005.4
20260505205003 23 74 8.0 16.1 0.00 0.00 0.00 62 1004.8
20260505204005 23 45 3.2 11.3 0.00 0.00 0.00 63 1004.0
20260505203004 23 67 3.2 9.7 0.00 0.00 0.00 63 1003.7
20260505202004 22 116 1.6 4.8 0.00 0.00 0.00 67 1003.8
20260505201003 22 81 3.2 11.3 0.00 0.00 0.00 69 1004.0
20260505200004 21 110 3.2 11.3 0.00 0.00 0.00 69 1004.1
20260505195003 22 128 3.2 20.9 0.00 0.00 0.00 64 1004.1
20260505194003 23 38 11.3 29.0 0.00 0.00 0.00 53 1004.7
20260505193003 27 56 11.3 38.6 0.00 0.00 0.00 37 1003.7